NUSAT-18 (VERA) (46836 NORAD) Tracking and Keplerian Element Data

This shows tracking and keplerian element data for the satellite.

Feedback or suggestion? Click here.




ElementValue
Catalog46836
NameNUSAT-18 (VERA)
Epoch Orbit1071
Epoch Day15.14997097
Epoch Year2021
RAAN92.0294
Inclination97.2617
Eccentricity0.0009687
Argument of Perigee38.8555
Mean Anonmoly45.5781
Mean Motion15.32161402
Decay Rate1.357E-05
L11 46836U 20079K 21015.14997097 .00001357 00000-0 46104-4 0 9995
L22 46836 97.2617 92.0294 0009687 38.8555 45.5781 15.32161402 10715

Live tracking and technical data element details for NUSAT-18 (VERA) (NORAD 46836). NUSAT-18 (VERA) can be tracked NOW for your location showing map with azimuth and elevation plus other details from your city location.

Track the satellite on the map from your city or location and see movement details for azimuth, elevation, latitude, longitude, range, height, and movement on the map or in text.







IsCatalogInMostPopularTable: catalog: 46836, numindb: 30
Update: records affected: 1



GetName: 46836 NUSAT-18 (VERA)

Hit Count: updated at: Sat, 16 Jan 2021 00:34:11 GMT